TimeCDT,TemperatureF,Dew PointF,Humidity,Sea Level PressureIn,VisibilityMPH,Wind Direction,Wind SpeedMPH,Gust SpeedMPH,PrecipitationIn,Events,Conditions,WindDirDegrees,DateUTC
12:15 AM,35.6,22.5,59,30.13,10.0,East,8.1,-,N/A,,Clear,90,2013-04-06 05:15:00
12:35 AM,35.6,23.5,62,30.13,10.0,East,6.9,-,N/A,,Clear,80,2013-04-06 05:35:00
12:55 AM,35.1,24.3,65,30.12,10.0,East,12.7,-,N/A,,Clear,80,2013-04-06 05:55:00
1:15 AM,35.1,24.8,66,30.13,10.0,East,5.8,-,N/A,,Clear,90,2013-04-06 06:15:00
1:35 AM,34.2,25.7,71,30.13,10.0,East,5.8,-,N/A,,Clear,90,2013-04-06 06:35:00
1:55 AM,34.9,26.8,72,30.12,10.0,East,9.2,-,N/A,,Clear,90,2013-04-06 06:55:00
2:15 AM,34.9,27.0,73,30.10,10.0,East,8.1,-,N/A,,Scattered Clouds,100,2013-04-06 07:15:00
2:35 AM,35.6,26.6,70,30.10,10.0,ESE,9.2,-,N/A,,Scattered Clouds,110,2013-04-06 07:35:00
2:55 AM,34.9,25.3,68,30.09,10.0,East,8.1,-,N/A,,Clear,100,2013-04-06 07:55:00
3:15 AM,35.6,24.6,64,30.09,10.0,East,4.6,-,N/A,,Clear,100,2013-04-06 08:15:00
3:35 AM,36.0,24.3,63,30.07,10.0,East,6.9,-,N/A,,Clear,100,2013-04-06 08:35:00
3:55 AM,36.5,24.1,61,30.06,10.0,ESE,11.5,-,N/A,,Clear,120,2013-04-06 08:55:00
4:15 AM,36.7,24.1,60,30.06,10.0,ESE,8.1,-,N/A,,Clear,120,2013-04-06 09:15:00
4:35 AM,36.5,24.8,63,30.06,10.0,ESE,8.1,-,N/A,,Clear,120,2013-04-06 09:35:00
4:55 AM,36.7,24.8,62,30.06,10.0,SE,9.2,-,N/A,,Clear,140,2013-04-06 09:55:00
5:15 AM,36.7,24.6,62,30.06,10.0,SE,8.1,-,N/A,,Clear,140,2013-04-06 10:15:00
5:35 AM,36.7,24.6,62,30.05,10.0,SE,10.4,17.3,N/A,,Clear,130,2013-04-06 10:35:00
5:55 AM,36.9,24.4,61,30.04,10.0,SE,12.7,17.3,N/A,,Clear,130,2013-04-06 10:55:00
6:15 AM,36.9,24.1,60,30.03,10.0,SE,10.4,-,N/A,,Clear,130,2013-04-06 11:15:00
6:35 AM,37.0,24.3,60,30.03,10.0,SE,12.7,17.3,N/A,,Clear,130,2013-04-06 11:35:00
6:55 AM,37.4,24.6,60,30.03,10.0,SE,10.4,-,N/A,,Clear,140,2013-04-06 11:55:00
7:15 AM,38.3,24.8,58,30.03,10.0,SE,9.2,-,N/A,,Clear,140,2013-04-06 12:15:00
7:35 AM,39.9,25.2,56,30.03,10.0,SE,9.2,16.1,N/A,,Clear,140,2013-04-06 12:35:00
7:55 AM,41.5,25.5,53,30.02,10.0,SSE,11.5,16.1,N/A,,Clear,150,2013-04-06 12:55:00
8:15 AM,42.3,26.1,53,30.01,10.0,SSE,15.0,18.4,N/A,,Clear,150,2013-04-06 13:15:00
8:35 AM,44.1,27.0,51,30.00,10.0,SSE,11.5,19.6,N/A,,Clear,150,2013-04-06 13:35:00
8:55 AM,46.6,27.7,48,29.99,10.0,SSE,16.1,23.0,N/A,,Clear,160,2013-04-06 13:55:00
9:15 AM,47.7,28.4,47,29.97,10.0,SSE,15.0,21.9,N/A,,Clear,160,2013-04-06 14:15:00
9:35 AM,50.0,28.4,43,29.97,10.0,SSE,17.3,24.2,N/A,,Clear,160,2013-04-06 14:35:00
9:55 AM,51.1,29.1,43,29.95,10.0,South,13.8,23.0,N/A,,Clear,170,2013-04-06 14:55:00
10:15 AM,52.2,29.1,41,29.94,10.0,SSE,15.0,24.2,N/A,,Clear,160,2013-04-06 15:15:00
10:35 AM,53.6,30.0,41,29.93,10.0,SSE,16.1,26.5,N/A,,Clear,160,2013-04-06 15:35:00
10:55 AM,54.5,30.4,40,29.91,10.0,South,15.0,25.3,N/A,,Clear,170,2013-04-06 15:55:00
11:15 AM,57.0,31.5,38,29.90,10.0,South,20.7,24.2,N/A,,Clear,170,2013-04-06 16:15:00
11:35 AM,58.3,32.0,37,29.89,10.0,South,13.8,25.3,N/A,,Clear,180,2013-04-06 16:35:00
11:55 AM,60.1,32.2,35,29.88,10.0,South,15.0,25.3,N/A,,Clear,170,2013-04-06 16:55:00
12:15 PM,60.8,32.2,34,29.85,10.0,South,18.4,28.8,N/A,,Clear,170,2013-04-06 17:15:00
12:35 PM,61.7,32.7,34,29.83,10.0,South,18.4,29.9,N/A,,Clear,180,2013-04-06 17:35:00
12:55 PM,65.1,33.6,31,29.81,10.0,South,20.7,31.1,N/A,,Clear,190,2013-04-06 17:55:00
1:15 PM,66.9,34.2,30,29.80,10.0,South,25.3,32.2,N/A,,Clear,170,2013-04-06 18:15:00
1:35 PM,66.4,33.8,30,29.76,10.0,South,25.3,35.7,N/A,,Clear,180,2013-04-06 18:35:00
1:55 PM,67.1,34.2,30,29.76,10.0,South,24.2,35.7,N/A,,Clear,190,2013-04-06 18:55:00
2:15 PM,70.3,34.9,27,29.74,10.0,South,18.4,38.0,N/A,,Clear,190,2013-04-06 19:15:00
2:35 PM,68.0,33.8,28,29.73,10.0,South,20.7,32.2,N/A,,Clear,180,2013-04-06 19:35:00
2:55 PM,68.4,33.4,27,29.72,10.0,South,24.2,38.0,N/A,,Clear,190,2013-04-06 19:55:00
3:15 PM,67.6,34.2,29,29.71,10.0,South,20.7,29.9,N/A,,Clear,190,2013-04-06 20:15:00
3:35 PM,68.9,34.5,28,29.70,10.0,SSW,17.3,27.6,N/A,,Clear,200,2013-04-06 20:35:00
3:55 PM,69.3,33.3,26,29.70,10.0,SSW,19.6,31.1,N/A,,Scattered Clouds,200,2013-04-06 20:55:00
4:15 PM,68.4,33.6,28,29.70,10.0,SSW,10.4,28.8,N/A,Rain,Light Rain,210,2013-04-06 21:15:00
4:35 PM,67.6,35.4,30,29.69,10.0,South,9.2,20.7,N/A,Rain,Light Rain,190,2013-04-06 21:35:00
4:55 PM,67.8,34.5,29,29.67,10.0,South,19.6,27.6,N/A,,Light Drizzle,190,2013-04-06 21:55:00
5:15 PM,68.4,33.6,28,29.68,10.0,SSW,17.3,28.8,N/A,,Scattered Clouds,200,2013-04-06 22:15:00
5:35 PM,66.2,37.4,35,29.65,10.0,South,18.4,24.2,N/A,Rain,Light Rain,180,2013-04-06 22:35:00
5:55 PM,67.3,35.1,30,29.68,10.0,SSW,16.1,29.9,N/A,,Mostly Cloudy,210,2013-04-06 22:55:00
6:15 PM,67.1,33.8,29,29.66,10.0,SSW,19.6,26.5,N/A,,Scattered Clouds,200,2013-04-06 23:15:00
6:35 PM,66.4,34.2,30,29.66,10.0,SSW,15.0,25.3,N/A,,Clear,200,2013-04-06 23:35:00
6:55 PM,66.2,34.7,31,29.66,10.0,SSW,15.0,25.3,N/A,,Scattered Clouds,210,2013-04-06 23:55:00
7:15 PM,65.7,34.5,31,29.66,10.0,SSW,18.4,27.6,N/A,,Scattered Clouds,200,2013-04-07 00:15:00
7:35 PM,65.3,34.7,32,29.66,10.0,SSW,13.8,21.9,N/A,,Mostly Cloudy,210,2013-04-07 00:35:00
7:55 PM,64.9,35.2,33,29.66,10.0,SSW,10.4,21.9,N/A,,Overcast,200,2013-04-07 00:55:00
8:15 PM,64.6,35.4,34,29.66,10.0,SSW,16.1,23.0,N/A,,Overcast,200,2013-04-07 01:15:00
8:35 PM,64.4,35.6,34,29.65,10.0,SSW,11.5,21.9,N/A,,Overcast,200,2013-04-07 01:35:00
8:55 PM,64.4,35.6,34,29.65,10.0,SSW,13.8,23.0,N/A,,Overcast,200,2013-04-07 01:55:00
9:15 PM,63.5,36.7,37,29.65,10.0,SSW,12.7,18.4,N/A,,Overcast,210,2013-04-07 02:15:00
9:35 PM,63.9,35.8,35,29.65,10.0,SSW,16.1,23.0,N/A,Thunderstorm,Overcast,210,2013-04-07 02:35:00
9:55 PM,63.9,36.0,36,29.63,10.0,SSW,17.3,29.9,N/A,,Overcast,200,2013-04-07 02:55:00
10:15 PM,63.1,37.0,38,29.62,10.0,SSW,16.1,29.9,N/A,,Overcast,200,2013-04-07 03:15:00
10:35 PM,62.6,37.6,40,29.62,10.0,SSW,17.3,27.6,N/A,,Scattered Clouds,200,2013-04-07 03:35:00
10:55 PM,62.2,38.7,42,29.63,10.0,SSW,20.7,27.6,N/A,Thunderstorm,Thunderstorm,210,2013-04-07 03:55:00
11:15 PM,53.8,47.3,79,29.68,5.0,West,5.8,27.6,0.06,Rain-Thunderstorm,Light Thunderstorms and Rain,260,2013-04-07 04:15:00
11:35 PM,53.6,47.3,79,29.66,7.0,SW,10.4,-,0.08,Rain,Light Rain,230,2013-04-07 04:35:00
11:55 PM,54.5,48.4,80,29.66,10.0,SW,9.2,16.1,0.08,,Scattered Clouds,220,2013-04-07 04:55:00